Retour au catalogue

TITAN 3C TRANSTAGE R/B

ActifHEO
NORAD 1863·ROCKET BODY·🇺🇸 United States

Lancé Dec 21, 1965 depuis Cape Canaveral Space Force Station

Loading…

Prochains Passages (prochaines 24 heures)

TLE

FraisSource: Space-Track

Époque: Sep 13, 2026, 23:13 UTC

1 01863U 65108A   26256.96778397  .00001510  00000-0  71522-3 0  9992
2 01863  26.7528 153.8834 5992798 226.9673  64.1702  4.00494175371922

Suivez TITAN 3C TRANSTAGE R/B en temps réel avec AllMySat

Download on the App Store